Weather History for Ypsilanti, MI

Change the Weather History Date:

Friday, February 8, 2013

  Actual Average Record
Temperature  
Mean Temperature 26 °F -  
Max Temperature 33 °F 31 °F 55 °F (1990)
Min Temperature 17 °F 14 °F -1 °F (1972)
Degree Days  
Heating Degree Days 39    
Moisture  
Dew Point 23 °F    
Average Humidity 75    
Maximum Humidity 87    
Minimum Humidity 59    
Precipitation  
Precipitation 0.00 in - - ()
Sea Level Pressure  
Sea Level Pressure 29.97 in    
Wind  
Wind Speed 14 mph (North)    
Max Wind Speed 28 mph    
Max Gust Speed 37 mph    
Visibility 4 miles    
Events Rain , Snow    
Averages and records for this station are not official NWS values.
T = Trace of Precipitation, MM = Missing Value Source: NWS Daily Summary

Daily Weather History Graph

Daily Weather History Graph

Search for Another Location

Airport:

Trip Planner

Search our weather history database for the weather conditions in past years. The results will help you decide how hot, cold, wet, or windy it might be!

Date:

Astronomy

Feb. 08, 2013 Rise Set
Actual Time 7:39 AM EST 5:57 PM EST
Civil Twilight 7:10 AM EST 6:27 PM EST
Nautical Twilight 6:36 AM EST 7:00 PM EST
Astronomical Twilight 6:04 AM EST 7:32 PM EST
Moon 6:07 AM EST (2/8) 4:29 PM EST (2/8)
Length of Visible Light 11h 17m
Length of Day
10h 18m
Waning Crescent, 3% of the Moon is Illuminated
Feb 8
Waning Crescent
Feb 10
New
Feb 17
First Quarter
Feb 25
Full
Mar 4
Last Quarter

Hourly Weather History & Observations

Time (EST) Temp. Windchill Dew Point Humidity Pressure Visibility Wind Dir Wind Speed Gust Speed Precip Events Conditions
12:12 AM 33.8 °F 23.5 °F 26.6 °F 75% 29.84 in 3.0 mi ENE 16.1 mph - 0.00 in Rain Light Freezing Rain
12:53 AM 33.1 °F 24.4 °F 27.0 °F 78% 29.83 in 4.0 mi ENE 11.5 mph - N/A Rain Light Freezing Rain
1:21 AM 33.8 °F 23.9 °F 28.4 °F 81% 29.80 in 4.0 mi ENE 15.0 mph - N/A Rain Light Freezing Rain
1:53 AM 33.1 °F 24.4 °F 28.0 °F 82% 29.81 in 4.0 mi ENE 11.5 mph - N/A Snow Light Snow
2:06 AM 33.8 °F 25.8 °F 28.4 °F 81% 29.79 in 1.8 mi ENE 10.4 mph - N/A Snow Light Snow
2:23 AM 33.8 °F 25.8 °F 28.4 °F 81% 29.78 in 0.8 mi ENE 10.4 mph - N/A Snow Light Snow
2:31 AM 33.8 °F 26.4 °F 28.4 °F 81% 29.78 in 1.0 mi NE 9.2 mph - N/A Snow Light Snow
2:53 AM 33.1 °F 25.5 °F 28.0 °F 82% 29.79 in 1.2 mi NE 9.2 mph - N/A Snow Light Snow
3:35 AM 32.0 °F 24.8 °F 28.4 °F 87% 29.77 in 0.8 mi NNE 8.1 mph - N/A Snow Light Snow
3:53 AM 32.0 °F 25.6 °F 28.0 °F 85% 29.78 in 1.0 mi North 6.9 mph - N/A Snow Light Snow
4:31 AM 32.0 °F 24.2 °F 26.6 °F 80% 29.76 in 2.5 mi North 9.2 mph - N/A Snow Light Snow
4:53 AM 32.0 °F 23.6 °F 27.0 °F 82% 29.79 in 3.0 mi NNW 10.4 mph - N/A Snow Light Snow
5:37 AM 32.0 °F 23.6 °F 26.6 °F 80% 29.78 in 6.0 mi NNW 10.4 mph - N/A   Haze
5:53 AM 32.0 °F 23.0 °F 26.1 °F 79% 29.81 in 6.0 mi NNW 11.5 mph - N/A   Haze
6:53 AM 32.0 °F 21.6 °F 26.1 °F 79% 29.84 in 6.0 mi NNW 15.0 mph - N/A   Overcast
7:43 AM 32.0 °F 21.2 °F 26.6 °F 80% 29.85 in 2.0 mi NNW 16.1 mph 25.3 mph N/A Snow Light Snow
7:50 AM 32.0 °F 20.5 °F 26.6 °F 80% 29.86 in 1.0 mi NNW 18.4 mph - N/A Snow Light Snow
7:53 AM 32.0 °F 21.6 °F 26.1 °F 79% 29.87 in 0.8 mi NNW 15.0 mph - N/A Snow Light Snow
8:11 AM 30.2 °F 18.5 °F 26.6 °F 86% 29.87 in 1.0 mi NNW 17.3 mph - N/A Snow Light Snow
8:19 AM 30.2 °F 18.1 °F 26.6 °F 86% 29.87 in 1.0 mi NNW 18.4 mph - N/A Snow Light Snow
8:33 AM 30.2 °F 18.1 °F 26.6 °F 86% 29.88 in 0.8 mi NNW 18.4 mph 25.3 mph N/A Snow Light Snow
8:46 AM 30.2 °F 17.1 °F 24.8 °F 80% 29.89 in 1.5 mi North 21.9 mph 28.8 mph N/A Snow Light Snow
8:53 AM 30.9 °F 18.1 °F 24.1 °F 76% 29.91 in 2.0 mi North 21.9 mph 33.4 mph N/A Snow Light Snow
8:58 AM 30.2 °F 17.4 °F 24.8 °F 80% 29.90 in 1.5 mi North 20.7 mph 33.4 mph N/A Snow Light Snow
9:17 AM 30.2 °F 17.1 °F 23.0 °F 75% 29.91 in 2.5 mi North 21.9 mph 32.2 mph N/A Snow Light Snow
9:24 AM 30.2 °F 17.1 °F 23.0 °F 75% 29.91 in 4.0 mi North 21.9 mph 32.2 mph N/A Snow Light Snow
9:53 AM 30.9 °F 18.4 °F 23.0 °F 72% 29.95 in 4.0 mi NNW 20.7 mph 28.8 mph N/A Snow Light Snow
10:15 AM 30.2 °F 16.8 °F 21.2 °F 69% 29.95 in 2.0 mi North 23.0 mph 35.7 mph N/A Snow Light Snow
10:27 AM 30.2 °F 16.2 °F 21.2 °F 69% 29.96 in 4.0 mi North 25.3 mph 36.8 mph N/A Snow Light Snow
10:53 AM 30.0 °F 17.2 °F 21.9 °F 72% 30.00 in 4.0 mi NNW 20.7 mph 33.4 mph N/A Snow Light Snow
11:53 AM 28.9 °F 16.1 °F 19.9 °F 69% 30.05 in 6.0 mi NNW 19.6 mph 32.2 mph N/A Snow Light Snow
12:53 PM 28.0 °F 12.8 °F 19.0 °F 69% 30.08 in 5.0 mi NNW 27.6 mph 31.1 mph N/A Snow Light Snow
1:53 PM 28.0 °F 14.6 °F 19.0 °F 69% 30.10 in 9.0 mi NNW 20.7 mph 27.6 mph N/A Snow Light Snow
2:53 PM 28.9 °F 16.5 °F 19.0 °F 67% 30.12 in 8.0 mi NNW 18.4 mph 29.9 mph N/A Snow Light Snow
3:53 PM 28.9 °F 15.4 °F 19.0 °F 67% 30.15 in 9.0 mi NNW 21.9 mph 27.6 mph N/A Snow Light Snow
4:53 PM 28.0 °F 15.7 °F 18.0 °F 66% 30.19 in 9.0 mi NNW 17.3 mph 25.3 mph N/A Snow Light Snow
5:53 PM 28.0 °F 17.5 °F 17.1 °F 63% 30.23 in 4.0 mi NNW 12.7 mph - N/A Snow Light Snow
6:08 PM 28.4 °F 17.0 °F 15.8 °F 59% 30.21 in 9.0 mi NNW 15.0 mph - N/A Snow Light Snow
6:53 PM 27.0 °F 16.7 °F 15.1 °F 61% 30.26 in 9.0 mi NNW 11.5 mph 24.2 mph N/A Snow Light Snow
7:14 PM 26.6 °F 15.2 °F 15.8 °F 64% 30.25 in 9.0 mi North 13.8 mph 21.9 mph N/A Snow Light Snow
7:53 PM 26.1 °F 15.6 °F 15.1 °F 63% 30.28 in 9.0 mi North 11.5 mph - N/A Snow Light Snow
8:53 PM 21.9 °F 13.4 °F 12.9 °F 68% 30.31 in 9.0 mi NNW 6.9 mph - N/A Snow Light Snow
9:53 PM 19.0 °F 11.1 °F 12.9 °F 77% 30.33 in 9.0 mi NNW 5.8 mph - N/A Snow Light Snow
10:53 PM 19.0 °F 12.3 °F 12.9 °F 77% 30.35 in 9.0 mi NW 4.6 mph - N/A Snow Light Snow
11:53 PM 17.1 °F 8.7 °F 10.9 °F 77% 30.36 in 9.0 mi NW 5.8 mph - N/A Snow Light Snow